Location: ??????
(36.0418°N, 43.6351°E)
Time: 04:06:13
(UTC+00:00)

Milstar 3 Cent rocket - Pass Details

Date: 07 March 2021
Orbit: 706 x 5147 km, 28.3° (Epoch: 20 April)

Event Time Altitude Azimuth Distance (km) Brightness Sun altitude
Exits shadow 01:28:12 34° 179° (S) 1,187 2.8 -24.9°
Maximum altitude 01:28:15 34° 178° (S) 1,185 2.8 -24.9°
Drops below altitude 10° 01:32:27 10° 111° (ESE) 2,170 5.1 -24.0°
Sets 01:34:58 0° 102° (ESE) 3,182 6.3 -23.5°
